Location: Unspecified
(0.0000°N, 0.0000°E)
Time: 03:08:20
(UTC+00:00)

Hubble Space Telescope - Pass Details

Date: 27 February 2021
Orbit: 536 x 539 km, 28.5° (Epoch: 24 February)

Event Time Altitude Azimuth Distance (km) Brightness Sun altitude
Rises 19:43:20 0° 271° (W) 2,665 5.8 -22.4°
Reaches altitude 10° 19:46:18 10° 293° (WNW) 1,774 4.2 -23.2°
Maximum altitude 19:48:52 16° 332° (NNW) 1,431 3.1 -23.8°
Enters shadow 19:49:45 15° 347° (NNW) 1,474 3.0 -24.0°
